Island Lake, Manitoba

8:20 AM CDT on May 24, 2017 (GMT -0500)
Island Lake

Weather History for CYIV - May, 2013

Change the Weather History Date:

Monday, May 6, 2013

  Actual Average Record
Temperature  
Mean Temperature 56 °F -  
Max Temperature 67 °F 55 °F 75 °F (1999)
Min Temperature 41 °F 37 °F 23 °F (1997)
Degree Days  
Heating Degree Days 10    
Growing Degree Days 6 (Base 50)    
Moisture  
Dew Point 37 °F    
Average Humidity 51    
Maximum Humidity 76    
Minimum Humidity 32    
Precipitation  
Precipitation 0.00 in -10.48 in - ()
Sea Level Pressure  
Sea Level Pressure 29.89 in    
Wind  
Wind Speed 7 mph ()    
Max Wind Speed 12 mph    
Max Gust Speed 22 mph    
Visibility 15.0 miles    
Events      
Averages and records for this station are not official NWS values.
T = Trace of Precipitation, MM = Missing Value Source: Averaged Metar Reports

Daily Weather History Graph

Daily Weather History Graph

Search for Another Location

Airport or City:

Trip Planner

Search our weather history database for the weather conditions in past years. The results will help you decide how hot, cold, wet, or windy it might be!

Date:

Astronomy

May. 06, 2013 Rise Set
Actual Time 5:32 AM CDT 8:59 PM CDT
Civil Twilight 4:49 AM CDT 9:42 PM CDT
Nautical Twilight 3:51 AM CDT 10:41 PM CDT
Astronomical Twilight 2:24 AM CDT 12:11 AM CDT
Moon 4:04 AM CDT (5/6) 5:36 PM CDT (5/6)
Length of Visible Light 16h 52m
Length of Day
15h 27m
Waning Crescent, 11% of the Moon is Illuminated
May 6
Waning Crescent
May 9
New
May 17
First Quarter
May 24
Full
May 31
Last Quarter

Hourly Weather History & Observations

Time (CDT) Temp. Windchill Dew Point Humidity Pressure Visibility Wind Dir Wind Speed Gust Speed Precip Events Conditions
12:00 AM 53.6 °F - 35.6 °F 51% 29.84 in 15.0 mi SW 10.4 mph 18.4 mph N/A   Mostly Cloudy
1:00 AM 54 °F - 35 °F 37% 29.83 in 15 mi SW 9.2 mph - -   Scattered Clouds
1:00 AM 53.6 °F - 35.6 °F 51% 29.83 in 15.0 mi SW 9.2 mph 19.6 mph N/A   Mostly Cloudy
2:00 AM 51.8 °F - 35.6 °F 54% 29.81 in 15.0 mi SW 10.4 mph 21.9 mph N/A   Partly Cloudy
3:00 AM 51.8 °F - 35.6 °F 54% 29.80 in 15.0 mi WSW 11.5 mph 21.9 mph N/A   Mostly Cloudy
4:00 AM 50.0 °F - 35.6 °F 58% 29.78 in 15.0 mi WSW 9.2 mph 18.4 mph N/A   Scattered Clouds
6:00 AM 48.2 °F - 35.6 °F 62% 29.81 in 15.0 mi WSW 8.1 mph - N/A   Mostly Cloudy
7:00 AM 47 °F - 36 °F 54% 29.83 in 15 mi West 6.9 mph - -   Scattered Clouds
7:00 AM 48.2 °F - 35.6 °F 62% 29.83 in 15.0 mi West 6.9 mph - N/A   Mostly Cloudy
8:00 AM 50.0 °F - 35.6 °F 58% 29.84 in 15.0 mi West 6.9 mph - N/A   Scattered Clouds
9:00 AM 50.0 °F - 37.4 °F 62% 29.85 in 15.0 mi West 5.8 mph - N/A   Mostly Cloudy
10:00 AM 55.4 °F - 39.2 °F 54% 29.86 in 15.0 mi West 4.6 mph - N/A   Mostly Cloudy
11:00 AM 59.0 °F - 41.0 °F 51% 29.87 in 15.0 mi WNW 4.6 mph - N/A   Scattered Clouds
12:00 PM 60.8 °F - 39.2 °F 45% 29.88 in 15.0 mi North 2.3 mph - N/A   Scattered Clouds
1:00 PM 63 °F - 40 °F 32% 29.88 in 15 mi WNW 3.5 mph - -   Clear
1:00 PM 62.6 °F - 41.0 °F 45% 29.88 in 15.0 mi WNW 3.5 mph - N/A   Partly Cloudy
2:00 PM 66.2 °F - 41.0 °F 40% 29.88 in 15.0 mi West 5.8 mph - N/A   Partly Cloudy
3:00 PM 66.2 °F - 39.2 °F 37% 29.89 in 15.0 mi NW 2.3 mph - N/A   Partly Cloudy
4:00 PM 64.4 °F - 39.2 °F 40% 29.91 in 15.0 mi NNE 9.2 mph - N/A   Partly Cloudy
5:00 PM 59.0 °F - 37.4 °F 45% 29.94 in 15.0 mi NNE 9.2 mph - N/A   Partly Cloudy
6:00 PM 57.2 °F - 37.4 °F 48% 29.96 in 15.0 mi NNE 9.2 mph - N/A   Scattered Clouds
7:00 PM 56 °F - 37 °F 36% 29.97 in 15 mi NNE 5.8 mph - -   Clear
7:00 PM 55.4 °F - 37.4 °F 51% 29.97 in 15.0 mi NNE 5.8 mph - N/A   Partly Cloudy
8:00 PM 51.8 °F - 35.6 °F 54% 29.98 in 15.0 mi ENE 5.8 mph - N/A   Mostly Cloudy
9:00 PM 48.2 °F - 35.6 °F 62% 29.99 in 15.0 mi ENE 6.9 mph - N/A   Partly Cloudy
10:00 PM 44.6 °F 40.7 °F 33.8 °F 66% 30.01 in 15.0 mi NE 6.9 mph - N/A   Partly Cloudy
11:00 PM 41.0 °F 36.4 °F 33.8 °F 76% 30.02 in 15.0 mi NE 6.9 mph - N/A   Partly Cloudy